Location: Les Jeannots
(43.2262°N, 5.5774°E)
Time: 08:02:03
(UTC+00:00)

Cosmos 1602 Rocket - Pass Details

Date: 05 July 2020
Orbit: 604 x 633 km, 82.5° (Epoch: 04 August)

Event Time Altitude Azimuth Distance (km) Brightness Sun altitude
Rises 20:21:45 0° 195° (SSW) 2,878 6.7 -9.6°
Reaches altitude 10° 20:23:58 10° 199° (SSW) 1,982 5.9 -9.9°
Maximum altitude 20:28:19 62° 280° (W) 709 4.1 -10.4°
Drops below altitude 10° 20:32:45 10° 2° (N) 2,014 6.9 -11.0°
Sets 20:35:02 0° 5° (N) 2,930 7.7 -11.3°
